This is the latest recevied weather packets stored in our database for station/object N9DRW. If no packets are shown the sender has not sent any weather packets the latest 10 day(s).
| Time | Temp. | Humidity | Pressure | Rain* | Wind** | Luminosity | Snow |
|---|---|---|---|---|---|---|---|
| 1778084533 | 9.44° C | 48% | 0 hPa | 0 mm | - | - | - |
| 1778083926 | 10° C | 47% | 0 hPa | 0 mm | - | - | - |
| 1778083326 | 9.44° C | 46% | 0 hPa | 0 mm | - | - | - |
| 1778082726 | 9.44° C | 48% | 0 hPa | 0 mm | - | - | - |
| 1778082126 | 9.44° C | 48% | 0 hPa | 0 mm | - | - | - |
| 1778081526 | 10° C | 48% | 0 hPa | 0 mm | - | - | - |
| 1778080926 | 10° C | 48% | 0 hPa | 0 mm | - | - | - |
| 1778080326 | 9.44° C | 48% | 0 hPa | 0 mm | - | - | - |
| 1778079726 | 9.44° C | 50% | 0 hPa | 0 mm | - | - | - |
| 1778079126 | 8.89° C | 52% | 0 hPa | 0 mm | - | - | - |
| 1778078526 | 8.89° C | 53% | 0 hPa | 0 mm | - | - | - |
| 1778077926 | 8.33° C | 53% | 0 hPa | 0 mm | - | - | - |
| 1778077326 | 8.33° C | 51% | 0 hPa | 0 mm | - | - | - |
| 1778076726 | 7.78° C | 54% | 0 hPa | 0 mm | - | - | - |
| 1778076126 | 7.78° C | 57% | 0 hPa | 0 mm | - | - | - |
| 1778075526 | 6.67° C | 58% | 0 hPa | 0 mm | - | - | - |
| 1778074926 | 6.67° C | 60% | 0 hPa | 0 mm | - | - | - |
| 1778074326 | 6.11° C | 60% | 0 hPa | 0 mm | - | - | - |
| 1778073726 | 5.56° C | 61% | 0 hPa | 0 mm | - | - | - |
| 1778073125 | 5° C | 64% | 0 hPa | 0 mm | - | - | - |
| 1778072525 | 5° C | 64% | 0 hPa | 0 mm | - | - | - |
| 1778071926 | 5° C | 64% | 0 hPa | 0 mm | - | - | - |
| 1778071326 | 5° C | 64% | 0 hPa | 0 mm | - | - | - |
| 1778070729 | 5° C | 64% | 0 hPa | 0 mm | - | - | - |
| 1778070126 | 5° C | 66% | 0 hPa | 0 mm | - | - | - |
* Rain latest hour (hover to see other rain measurements)
** Current wind speed in m/s (hover to see current wind gust speed)